This is the latest recevied weather packets stored in our database for station/object SP1BMW-13. If no packets are shown the sender has not sent any weather packets the latest 10 day(s).
| Time | Temp. | Humidity | Pressure | Rain* | Wind** | Luminosity | Snow |
|---|---|---|---|---|---|---|---|
| 1788000501 | 23.33° C | 52% | 1009.7 hPa | 0 mm | 0.45 m/s, 179° | 412 W/m² | - |
| 1788000441 | 23.33° C | 53% | 1009.9 hPa | 0 mm | 0.45 m/s, 272° | 601 W/m² | - |
| 1788000381 | 23.33° C | 52% | 1009.9 hPa | 0 mm | 0.89 m/s, 221° | 198 W/m² | - |
| 1788000321 | 23.33° C | 51% | 1009.7 hPa | 0 mm | 0.89 m/s, 220° | 125 W/m² | - |
| 1788000261 | 23.89° C | 51% | 1009.7 hPa | 0 mm | 0.45 m/s, 288° | 150 W/m² | - |
| 1788000201 | 23.89° C | 51% | 1009.8 hPa | 0 mm | 2.24 m/s, 298° | 133 W/m² | - |
| 1788000141 | 23.33° C | 50% | 1009.7 hPa | 0 mm | 1.79 m/s, 239° | 600 W/m² | - |
| 1788000081 | 23.33° C | 53% | 1009.7 hPa | 0 mm | 0.89 m/s, 263° | 616 W/m² | - |
| 1788000020 | 23.33° C | 51% | 1009.6 hPa | 0 mm | 0.89 m/s, 339° | 306 W/m² | - |
| 1787999961 | 23.33° C | 51% | 1009.8 hPa | 0 mm | 2.24 m/s, 215° | 620 W/m² | - |
| 1787999901 | 23.33° C | 52% | 1009.7 hPa | 0 mm | 0.89 m/s, 296° | 626 W/m² | - |
| 1787999840 | 23.33° C | 53% | 1010 hPa | 0 mm | 1.34 m/s, 35° | 622 W/m² | - |
| 1787999781 | 23.33° C | 52% | 1009.8 hPa | 0 mm | 2.24 m/s, 281° | 638 W/m² | - |
| 1787999721 | 23.33° C | 53% | 1009.9 hPa | 0 mm | 2.68 m/s, 285° | 638 W/m² | - |
| 1787999660 | 23.33° C | 53% | 1009.8 hPa | 0 mm | 1.79 m/s, 264° | 646 W/m² | - |
| 1787999600 | 23.33° C | 54% | 1009.8 hPa | 0 mm | 1.79 m/s, 277° | 669 W/m² | - |
| 1787999540 | 23.33° C | 53% | 1009.9 hPa | 0 mm | 2.68 m/s, 151° | 729 W/m² | - |
| 1787999480 | 23.33° C | 52% | 1009.9 hPa | 0 mm | 2.24 m/s, 224° | 200 W/m² | - |
| 1787999421 | 23.33° C | 52% | 1009.9 hPa | 0 mm | 1.79 m/s, 261° | 188 W/m² | - |
| 1787999361 | 23.33° C | 52% | 1009.8 hPa | 0 mm | 0.89 m/s, 273° | 329 W/m² | - |
| 1787999301 | 23.33° C | 53% | 1009.8 hPa | 0 mm | 0.89 m/s, 90° | 225 W/m² | - |
| 1787999241 | 23.33° C | 51% | 1010 hPa | 0 mm | 1.79 m/s, 205° | 671 W/m² | - |
| 1787999181 | 23.33° C | 51% | 1009.8 hPa | 0 mm | 1.34 m/s, 225° | 686 W/m² | - |
| 1787999121 | 23.33° C | 53% | 1010 hPa | 0 mm | 0.89 m/s, 212° | 662 W/m² | - |
| 1787999061 | 23.33° C | 52% | 1010 hPa | 0 mm | 1.79 m/s, 339° | 656 W/m² | - |
* Rain latest hour (hover to see other rain measurements)
** Current wind speed in m/s (hover to see current wind gust speed)